Location: Newark
(13.0000°N, 151.6000°E)
Time: 09:45:26
(UTC+00:00)

Envisat - Visible Passes

Search period start: 08 April 2020 00:00
Search period end: 18 April 2020 00:00
Orbit: 764 x 766 km, 98.1° (Epoch: 07 April)

Date Brightness Start Highest point End Pass type
(mag) Time Alt. Az. Time Alt. Az. Time Alt. Az.
08 Apr 6.3 18:59:45 10° ENE 19:01:29 12° E 19:03:14 10° ESE visible
10 Apr 5.4 08:37:41 10° SSW 08:41:51 26° W 08:46:01 10° NW visible
12 Apr 6.1 09:05:17 10° WSW 09:07:20 12° W 09:09:23 10° WNW visible
13 Apr 4.8 08:25:58 10° SSW 08:30:32 35° W 08:35:08 10° NW visible
13 Apr 5.9 19:12:14 10° ENE 19:15:40 18° E 19:19:05 10° SE visible
15 Apr 5.8 08:52:46 10° SW 08:56:01 17° W 08:59:15 10° WNW visible
16 Apr 6.1 19:01:58 10° ENE 19:04:20 13° E 19:06:42 10° SE visible
